Location: Izdebno
(52.6670°N, 16.2170°E)
Time: 03:18:48
(UTC+02:00)

SR - Pass Details

Date: 28 February 2024
Orbit: 577 x 862 km, 66.7° (Epoch: 22 April)

Event Time Altitude Azimuth Distance (km) Brightness Sun altitude
Rises 16:51:24 0° 261° (W) 3,428 ? 4.9°
Reaches altitude 10° 16:54:15 10° 273° (W) 2,472 ? 4.5°
Maximum altitude 16:59:11 29° 332° (NNW) 1,476 ? 3.8°
Drops below altitude 10° 17:03:53 10° 32° (NNE) 2,348 ? 3.1°
Sets 17:06:32 0° 44° (NE) 3,229 ? 2.8°
